Regional Weather Roundup
Issued by NWS Binghamton, NY

Home | Current Version | Previous Version | Text Only | Print | Product List | Glossary On
Versions: 1 2 3 4 5 6 7 8 9 10 11 12 13 14 15 16 17 18 19 20 21 22 23 24 25 26 27 28 29 30 31 32 33 34 35 36 37 38 39 40 41 42 43 44 45 46 47 48 49 50
000
ASUS41 KBGM 160110
RWRBGM
RWRBGM
BINGHAMTON REGIONAL WEATHER ROUNDUP
NATIONAL WEATHER SERVICE BINGHAMTON NY
900 PM EDT MON SEP 15 2014

Note: "fair" indicates few or no clouds below 12,000 feet with no
significant weather and/or obstructions to visibility.

* = Station(s) that does not report precipitation, such as rain,
snow, etc, also no thunder or fog.

!NYZ009-015>018-022>025-036-037-044>046-055>057-062-160200
...CENTRAL NEW YORK...

CITY           SKY/WX    TMP DP  RH WIND       PRES   REMARKS
BINGHAMTON     CLOUDY    58  47  66 SW7       30.09S
CORTLAND       CLOUDY    55  52  88 CALM      30.09S
DANSVILLE      LGT RAIN  56  55  97 N3        30.09S
ELMIRA         CLOUDY    63  50  62 SW8       30.07S
ITHACA         CLOUDY    59  51  74 S6        30.08S
HAMILTON       CLOUDY    57  52  82 CALM      30.07F
MONTICELLO     CLOUDY    55  46  71 S5        30.12R
NORWICH        MOCLDY    54  50  87 CALM      30.09S
PENN YAN       LGT RAIN  59  50  72 CALM      30.09R
ROME           CLOUDY    58  49  72 SE5       30.07F
SIDNEY         PTCLDY    55  54  94 CALM      30.09R
SYRACUSE       LGT RAIN  61  51  70 CALM      30.06S
$$

!PAZ038>040-043-044-047-048-072-160200
...NORTHEAST PENNSYLVANIA...

CITY           SKY/WX    TMP DP  RH WIND       PRES   REMARKS
HAZLETON       PTCLDY    54  48  82 CALM      30.15R
SCRANTON       PTCLDY    58  47  66 CALM      30.10R
TOWANDA*       PTCLDY    55  52  88 SW5       30.10S
$$
&&
KEY
WCI = WIND CHILL INDEX
VSB = VISIBILITY
HX  = HEAT INDEX
$$


USA.gov is the U.S. government's official web portal to all federal, state and local government web resources and services.